Wind_Speed
38 37 37 37 36 36 35 34 33 34 34 34 33 33 33 33 33 33 33 34 34 34 35 35 35 36 37 37 37 37 37 37 37 37 37 37 38 37 37 37 38 39 39
38 37 38 38 37 37 36 35 34 34 34 34 34 34 34 34 34 33 33 33 34 35 35 36 36 37 37 38 38 38 38 38 39 39 38 38 38 37 37 37 38 39 39
38 37 38 38 38 38 37 36 35 35 35 35 35 35 35 34 35 34 33 34 34 35 36 37 38 38 38 38 38 38 38 39 39 39 40 39 39 39 39 39 39 39 39
38 38 38 38 39 38 38 37 37 36 36 35 35 35 34 34 35 35 35 35 35 35 36 36 37 38 38 38 38 39 39 40 40 41 41 42 41 42 40 41 41 41 42
37 37 37 38 39 38 38 38 37 37 37 36 36 35 35 35 35 35 35 36 37 37 36 37 37 37 38 39 39 39 40 40 41 41 41 41 41 42 42 42 42 42 43
36 37 37 38 39 39 39 38 38 38 38 37 37 36 36 35 35 35 35 36 36 37 37 38 38 38 39 39 40 40 40 41 41 40 40 40 41 41 42 42 42 42 42
36 36 37 38 39 39 39 39 38 38 38 38 38 38 37 36 36 36 36 36 36 36 38 38 38 39 39 39 39 40 40 41 41 42 42 42 42 42 42 43 42 42 42
35 36 36 37 38 38 38 39 38 38 38 39 39 38 38 37 37 37 36 36 36 36 37 37 38 38 39 39 40 40 41 41 41 41 42 42 43 43 43 44 44 43 43
34 35 35 36 37 38 38 39 39 39 39 39 40 39 39 39 38 37 37 37 37 37 37 38 38 39 39 40 41 40 40 40 41 42 42 43 43 43 44 44 45 45 45
34 34 35 36 37 37 38 38 39 39 39 40 40 40 39 39 38 38 38 38 38 38 38 38 39 40 40 41 40 39 40 41 41 42 43 43 43 44 45 46 45 46 47
33 33 34 35 35 35 36 38 38 39 39 40 40 40 39 39 39 39 39 38 37 37 38 38 38 39 39 39 39 39 40 41 42 42 43 43 44 45 46 46 46 47 47
32 33 34 34 35 35 36 37 38 38 39 40 40 40 40 39 39 40 39 39 38 38 38 38 38 39 39 39 39 39 40 41 42 42 43 44 44 45 45 46 46 46 47
32 33 33 34 34 35 36 37 38 38 39 40 40 40 40 40 39 39 39 39 39 38 38 38 39 38 38 38 39 39 38 39 40 41 42 42 43 44 44 44 45 46 46
32 32 33 34 35 36 37 37 38 38 39 40 40 40 40 40 40 39 39 39 39 39 39 39 38 38 38 38 39 39 39 39 40 40 41 42 42 42 44 44 45 46 46
32 33 33 33 34 35 36 36 37 37 38 39 39 40 40 40 40 39 39 39 39 39 39 38 38 38 38 39 39 40 39 39 40 40 41 42 43 43 44 45 46 46 46
33 33 33 34 34 34 35 35 36 36 37 38 38 39 39 39 39 39 38 38 39 39 39 38 38 39 39 39 40 40 40 40 40 40 41 42 43 44 45 45 45 46 46
32 32 33 33 33 34 34 34 34 34 36 37 37 38 38 39 39 39 39 38 39 39 39 39 39 38 38 39 39 40 41 41 41 41 42 43 44 45 45 45 46 47 47
32 32 32 33 32 33 34 33 33 34 35 36 36 36 37 37 37 37 38 38 38 38 39 39 39 39 39 39 40 40 40 40 41 41 41 42 42 42 43 43 44 45 45
32 32 33 33 33 33 34 34 34 35 35 35 35 35 36 36 37 37 37 37 37 38 38 39 39 39 39 39 40 40 39 39 40 39 39 39 40 41 42 42 43 44 45
31 32 32 33 33 34 35 35 35 35 35 35 36 35 36 36 37 37 38 38 38 39 39 39 39 39 39 39 39 39 39 39 39 39 39 39 39 40 41 41 42 43 44
32 32 32 33 34 35 35 36 36 36 36 36 36 36 36 36 37 38 38 39 39 39 39 38 38 38 38 38 38 39 39 39 38 38 38 39 40 40 40 40 41 42 43
32 32 33 33 34 35 35 36 37 37 37 37 37 37 37 37 38 39 39 39 39 39 39 39 38 38 38 38 39 39 39 39 39 39 39 39 39 40 40 40 41 41 42
31 32 33 33 33 34 34 35 36 37 37 38 38 38 38 38 38 39 39 38 38 38 39 39 38 38 37 38 38 38 38 38 39 39 39 39 39 40 40 40 41 42 43
30 31 31 31 32 32 33 34 35 35 36 37 37 38 38 38 37 38 38 37 37 37 37 37 37 37 37 37 37 38 38 38 38 38 39 39 39 40 40 40 41 42 43
30 30 30 30 30 30 31 32 33 33 33 34 35 36 36 36 36 36 37 37 36 36 36 36 36 36 36 36 37 37 37 38 38 38 38 39 39 40 40 41 41 42 42
29 29 29 29 29 29 30 30 31 31 31 31 32 33 33 34 34 35 35 35 35 35 35 36 36 36 36 36 36 36 37 37 37 38 38 38 39 40 41 41 42 42 42
Wind_Direction
258 258 257 257 257 256 257 256 256 256 257 257 257 258 257 257 256 256 257 258 257 256 256 255 254 252 252 252 252 251 252 252 252 252 252 252 251 250 251 252 253 253 255
256 256 256 256 256 256 256 256 255 256 256 257 256 257 257 257 256 255 257 258 257 256 257 256 255 255 253 252 252 252 252 253 253 253 254 252 252 250 252 253 254 255 256
255 254 254 255 255 255 255 256 255 255 255 256 257 257 257 257 256 257 259 258 258 257 256 256 256 255 254 254 254 253 253 253 254 254 254 253 252 252 252 253 253 254 255
255 254 253 253 254 254 254 255 255 254 255 255 256 257 258 257 257 257 259 259 258 258 258 257 257 256 255 254 255 255 254 254 255 255 255 254 254 254 252 254 254 255 256
255 254 253 253 253 253 253 254 254 254 254 254 255 256 257 258 258 258 260 260 260 259 260 259 259 258 256 255 254 255 256 255 255 255 255 255 255 255 255 255 255 256 257
255 254 254 253 252 252 253 253 253 253 253 253 254 254 255 257 258 259 261 262 261 260 260 260 259 258 257 256 255 255 257 256 256 255 255 256 255 255 255 256 256 257 258
256 255 254 254 253 253 252 252 252 253 253 252 253 253 254 256 258 259 260 262 262 261 260 260 259 258 257 257 257 256 258 258 257 256 256 256 256 256 256 257 257 258 259
255 255 255 255 254 253 252 252 252 252 252 252 252 253 254 255 257 258 260 262 263 262 261 260 259 257 257 257 257 258 257 257 257 257 256 256 257 257 258 258 258 259 260
256 256 254 254 253 252 251 251 251 251 251 251 252 253 254 255 256 257 259 261 262 262 263 262 261 259 259 259 259 258 256 256 257 257 257 257 257 258 259 260 260 260 260
255 255 254 253 252 251 251 251 250 250 251 251 252 253 254 256 256 257 259 261 263 263 264 263 261 261 261 261 259 257 256 256 257 257 258 259 259 259 260 261 261 262 262
255 253 253 253 252 250 251 251 251 251 251 252 252 253 254 256 257 258 259 261 263 263 263 262 262 262 262 260 259 258 257 256 257 259 259 259 259 260 261 262 263 264 264
255 255 254 253 251 250 251 252 252 252 252 252 253 254 255 257 258 259 260 261 263 264 263 263 263 263 262 261 260 260 258 258 258 259 259 258 260 261 262 263 263 264 265
257 256 255 254 252 252 253 254 254 253 253 253 254 255 256 258 259 260 261 262 263 264 264 264 263 263 263 263 262 261 260 260 259 260 260 261 261 262 262 264 265 265 265
258 257 256 254 252 252 254 254 254 254 254 254 255 256 258 259 260 261 262 262 264 265 265 264 264 263 264 263 262 263 262 261 261 262 261 261 262 263 262 264 265 266 266
257 257 256 255 254 253 254 254 254 254 254 256 257 258 259 260 260 261 262 263 264 265 265 264 264 265 265 264 264 263 264 263 264 263 263 263 263 264 265 266 266 267 267
255 255 255 254 254 253 253 254 255 256 256 257 258 259 259 259 259 259 261 262 264 264 264 264 265 265 265 264 264 264 264 264 264 264 264 264 265 266 267 267 267 267 267
255 256 255 254 253 252 253 254 255 255 256 258 258 259 259 259 259 260 261 262 263 263 263 264 265 265 265 265 266 266 266 266 266 265 266 265 266 267 268 268 267 267 268
256 255 255 254 253 252 252 253 254 255 256 258 258 259 260 259 259 260 261 262 262 263 264 264 265 265 266 266 267 267 267 267 267 268 269 268 268 269 269 269 269 270 270
256 256 256 255 253 253 253 255 255 256 257 258 260 261 261 260 260 261 262 262 263 264 264 265 266 266 267 267 268 268 267 267 268 268 269 269 269 270 270 270 270 271 271
257 256 255 255 255 254 254 254 255 257 258 259 260 261 262 262 263 263 263 263 264 264 265 265 266 266 267 267 268 267 267 268 268 268 269 269 270 270 270 270 271 271 271
257 258 257 257 257 257 256 256 257 258 258 259 261 262 262 263 265 265 265 265 265 265 265 266 266 266 266 266 267 267 268 268 269 269 270 270 271 271 272 272 272 272 271
258 258 259 259 259 259 259 259 259 258 259 260 261 263 263 264 265 266 266 266 266 266 266 266 267 268 267 266 266 267 267 268 269 269 270 271 272 273 273 273 274 273 273
261 261 261 260 261 262 262 260 260 261 261 261 262 264 265 265 266 266 267 267 267 266 266 267 267 268 267 267 267 266 267 267 268 268 270 271 272 273 274 275 275 274 274
262 261 260 261 263 263 263 262 263 264 264 263 263 265 265 265 265 266 266 267 267 267 267 266 267 267 267 267 267 266 266 267 268 269 270 270 272 274 275 275 276 276 276
263 262 261 262 263 264 264 264 265 265 265 265 265 265 265 264 265 266 267 267 268 268 268 268 267 267 267 267 267 267 267 268 269 271 271 272 274 275 276 277 277 278 278
262 263 263 263 264 265 266 266 266 265 265 265 265 265 265 265 266 266 267 267 269 270 269 268 268 267 268 267 267 268 269 270 272 272 273 274 275 276 277 279 279 279 279
Height
5708 5709 5711 5713 5714 5716 5718 5719 5720 5722 5723 5724 5726 5727 5728 5729 5730 5732 5733 5735 5736 5738 5740 5742 5744 5746 5748 5750 5752 5755 5757 5759 5760 5763 5765 5768 5770 5772 5774 5776 5778 5780 5781
5698 5700 5702 5703 5705 5707 5709 5710 5712 5713 5715 5716 5717 5719 5720 5721 5722 5723 5725 5726 5728 5729 5731 5733 5735 5737 5739 5741 5743 5746 5748 5750 5751 5754 5756 5759 5762 5763 5766 5767 5769 5771 5772
5689 5691 5692 5694 5696 5698 5700 5701 5703 5705 5706 5708 5709 5710 5712 5713 5715 5716 5717 5718 5719 5721 5723 5725 5726 5728 5730 5732 5734 5736 5739 5741 5742 5744 5747 5750 5752 5755 5757 5759 5760 5761 5763
5679 5681 5683 5684 5686 5688 5690 5692 5694 5696 5697 5699 5701 5703 5704 5706 5707 5708 5709 5710 5711 5713 5714 5715 5717 5718 5720 5722 5725 5727 5729 5731 5733 5735 5737 5740 5742 5745 5747 5749 5750 5752 5753
5670 5672 5673 5675 5676 5678 5680 5682 5685 5687 5688 5690 5692 5694 5696 5697 5698 5699 5700 5701 5703 5704 5705 5706 5708 5709 5711 5713 5715 5717 5719 5721 5723 5726 5727 5729 5731 5733 5736 5738 5740 5741 5742
5660 5662 5663 5665 5667 5669 5671 5673 5675 5677 5679 5681 5683 5685 5687 5689 5690 5691 5692 5693 5694 5695 5696 5697 5698 5700 5701 5703 5705 5707 5709 5711 5713 5715 5717 5719 5721 5723 5725 5727 5729 5730 5732
5650 5652 5654 5655 5657 5659 5661 5663 5665 5668 5670 5672 5674 5676 5678 5680 5682 5683 5684 5684 5685 5686 5687 5688 5689 5690 5692 5693 5695 5697 5699 5701 5703 5705 5707 5709 5711 5713 5715 5716 5718 5720 5721
5640 5642 5644 5645 5647 5649 5651 5653 5655 5658 5660 5662 5665 5667 5669 5671 5673 5674 5675 5676 5677 5678 5678 5679 5680 5681 5683 5684 5685 5687 5689 5691 5692 5694 5696 5698 5700 5702 5704 5705 5707 5709 5711
5631 5632 5634 5635 5637 5639 5641 5644 5646 5648 5650 5653 5655 5657 5659 5661 5663 5664 5666 5667 5668 5669 5669 5670 5671 5672 5673 5674 5675 5677 5678 5680 5682 5684 5686 5688 5690 5691 5693 5694 5695 5697 5699
5621 5622 5624 5625 5627 5629 5631 5633 5635 5638 5640 5643 5645 5647 5649 5651 5653 5655 5656 5657 5658 5659 5660 5660 5661 5662 5663 5664 5665 5667 5668 5670 5672 5674 5676 5677 5678 5680 5681 5683 5683 5684 5686
5611 5613 5614 5616 5617 5619 5621 5623 5626 5628 5630 5633 5635 5638 5640 5642 5643 5645 5646 5647 5649 5650 5650 5651 5651 5652 5653 5654 5655 5656 5658 5659 5661 5663 5664 5666 5667 5668 5670 5670 5671 5672 5673
5601 5603 5605 5606 5608 5610 5612 5614 5616 5618 5620 5623 5625 5627 5630 5632 5634 5635 5636 5638 5639 5640 5640 5641 5642 5642 5643 5644 5645 5646 5648 5649 5650 5651 5652 5654 5655 5657 5657 5658 5659 5659 5660
5593 5594 5595 5597 5599 5601 5602 5604 5606 5608 5610 5613 5615 5617 5620 5622 5623 5625 5626 5627 5628 5629 5630 5631 5632 5632 5633 5633 5634 5636 5637 5638 5639 5640 5641 5642 5643 5644 5645 5646 5647 5647 5647
5584 5585 5587 5588 5590 5592 5593 5595 5597 5599 5601 5603 5605 5607 5609 5611 5613 5614 5616 5617 5618 5619 5620 5621 5621 5622 5622 5623 5624 5625 5627 5627 5628 5629 5630 5631 5631 5632 5633 5634 5634 5634 5634
5575 5577 5578 5579 5581 5582 5584 5586 5587 5589 5591 5593 5595 5597 5598 5600 5602 5604 5605 5607 5608 5609 5609 5610 5611 5611 5612 5613 5614 5615 5616 5617 5617 5618 5619 5619 5619 5620 5621 5621 5621 5621 5622
5566 5568 5569 5570 5572 5573 5575 5576 5578 5579 5581 5583 5584 5586 5588 5590 5591 5593 5594 5596 5597 5598 5599 5600 5601 5601 5602 5603 5603 5604 5605 5606 5606 5607 5607 5608 5608 5608 5608 5608 5609 5609 5609
5557 5558 5559 5560 5562 5564 5565 5567 5568 5570 5571 5573 5574 5576 5577 5579 5581 5582 5584 5585 5586 5587 5588 5589 5590 5590 5591 5591 5592 5592 5593 5594 5594 5595 5595 5596 5596 5596 5596 5596 5596 5596 5596
5548 5549 5550 5551 5553 5554 5556 5557 5559 5560 5562 5563 5564 5566 5567 5568 5570 5571 5573 5574 5575 5576 5577 5578 5578 5579 5579 5580 5580 5581 5581 5582 5582 5583 5583 5583 5583 5583 5583 5583 5583 5583 5583
5538 5540 5541 5542 5543 5545 5546 5548 5549 5551 5552 5553 5554 5555 5557 5558 5559 5560 5562 5563 5564 5565 5566 5566 5567 5567 5568 5568 5568 5569 5569 5570 5571 5571 5571 5571 5571 5571 5571 5571 5571 5571 5571
5529 5530 5532 5533 5534 5535 5537 5538 5540 5541 5542 5544 5545 5546 5546 5548 5549 5550 5551 5552 5553 5554 5554 5555 5555 5556 5556 5556 5556 5557 5558 5559 5559 5559 5559 5559 5559 5559 5558 5558 5558 5559 5558
5520 5521 5523 5524 5525 5526 5527 5529 5530 5531 5532 5534 5535 5536 5536 5537 5538 5539 5540 5540 5541 5542 5543 5544 5544 5544 5545 5545 5545 5545 5546 5547 5547 5548 5548 5548 5547 5547 5546 5546 5546 5546 5545
5512 5512 5514 5515 5515 5516 5518 5519 5520 5521 5522 5523 5524 5525 5526 5526 5527 5528 5528 5529 5530 5531 5531 5532 5533 5533 5533 5533 5533 5534 5534 5535 5536 5536 5537 5536 5536 5535 5535 5534 5534 5534 5533
5502 5503 5504 5505 5506 5507 5508 5509 5509 5510 5511 5512 5513 5514 5515 5515 5516 5516 5517 5517 5518 5518 5519 5520 5521 5522 5522 5522 5522 5522 5523 5523 5524 5524 5525 5525 5524 5524 5523 5523 5522 5521 5521
5493 5494 5495 5496 5496 5497 5498 5498 5499 5500 5501 5502 5502 5503 5504 5504 5505 5505 5506 5506 5506 5507 5507 5508 5509 5510 5510 5510 5510 5511 5511 5512 5512 5513 5513 5513 5513 5512 5512 5511 5510 5509 5509
5484 5485 5486 5487 5487 5488 5488 5489 5489 5490 5491 5491 5492 5492 5493 5494 5494 5494 5495 5495 5495 5495 5496 5497 5498 5498 5499 5499 5499 5500 5500 5501 5501 5501 5501 5501 5501 5501 5500 5500 5499 5498 5497
5476 5476 5477 5478 5478 5479 5479 5480 5480 5480 5481 5481 5482 5482 5483 5483 5484 5484 5485 5484 5485 5485 5485 5485 5486 5487 5488 5488 5488 5489 5489 5489 5489 5489 5489 5490 5489 5489 5488 5488 5486 5485 5484